Погода в Малокатериновке

Украина / Запорожская область     47°39′27″N   35°15′25″E
темп.,
°C
ветер,
м/с
пор.,
м/с
влажн.,
%
обл.,
%
осадки,
мм/ч
давл.,
гПа
погр.,
м
18 мая, вт
вт1800:00+15ю3690100 0.6 1006187
03:00+15ююз4690100 0.6 1006205
06:00+14ююз479074 0.0 1007305
09:00+17ююз577536 0.0 1007714
12:00+19ю57655 0.0 1006885
15:00+18ююз71072100 2.1 1006947
18:00+16ю478280 0.6 1005345
21:00+16ю71180100 2.8 1005352
19 мая, ср
ср1900:00+14ююз4884100 0.4 1005325
03:00+13ю5890100 0.8 1005361
06:00+13ю479152 0.1 1005353
09:00+16ююз56725 0.1 1005928
12:00+18ю685740 0.4 10051559
15:00+16ююз9107577 1.6 10061038
18:00+16ююз6877100 0.9 1005972
21:00+14зюз7138345 2.1 1007634
20 мая, чт
чт2000:00+13зюз71284100 0.4 1007818
03:00+13зюз7118678 0.6 1008745
06:00+12зюз61184100 0.1 1010564
09:00+16зюз696899 0.1 1010761
12:00+19юз685392 0.0 10121279
15:00+21ююз474935 0.0 10111770
18:00+21з125449 0.0 1011566
21:00+16юв236972 0.0 101256
21 мая, пт
пт2100:00+14в3367100 0.0 101260
03:00+13св4665100 0.0 1012105
06:00+13св6117799 0.0 1012304
09:00+16всв71273100 0.0 1011487
12:00+23в5654100 0.0 10111141
15:00+26вюв444555 0.0 10101425
18:00+24в3556100 0.0 1009340
21:00+20св467469 0.0 101091
22 мая, сб
сб2200:00+17всв3687100 0.0 1009103
03:00+17св349132 0.0 100965
06:00+16ссв378917 0.0 1009192
09:00+22св56683 0.0 1009611
12:00+26св5557100 0.0 10091111
15:00+27св3353100 0.0 10081299
18:00+27ссв4555100 0.0 1008839
21:00+22св3574100 0.0 100984